Change the Weather History Date:

Tuesday, November 19, 2013

  Actual Average Record
Temperature  
Mean Temperature 41 °F -  
Max Temperature 48 °F 51 °F 68 °F (1953)
Min Temperature 32 °F 36 °F 19 °F (2005)
Degree Days  
Heating Degree Days 24    
Moisture  
Dew Point 22 °F    
Average Humidity 47    
Maximum Humidity 54    
Minimum Humidity 36    
Precipitation  
Precipitation 0.00 in - - ()
Sea Level Pressure  
Sea Level Pressure 29.96 in    
Wind  
Wind Speed 9 mph (NW)    
Max Wind Speed 16 mph    
Max Gust Speed 25 mph    
Visibility 10 miles    
Events Rain    
Averages and records for this station are not official NWS values.
T = Trace of Precipitation, MM = Missing Value Source: NWS Daily Summary

Daily Weather History Graph

Daily Weather History Graph

Search for Another Location

Airport or City:

Trip Planner

Search our weather history database for the weather conditions in past years. The results will help you decide how hot, cold, wet, or windy it might be!

Date:

Astronomy

Nov. 19, 2013 Rise Set
Actual Time 6:38 AM EST 4:20 PM EST
Civil Twilight 6:07 AM EST 4:50 PM EST
Nautical Twilight 5:33 AM EST 5:24 PM EST
Astronomical Twilight 5:00 AM EST 5:57 PM EST
Moon 6:08 PM EST (11/19) 8:14 AM EST (11/19)
Length of Visible Light 10h 42m
Length of Day
9h 42m
Waning Gibbous, 96% of the Moon is Illuminated
Nov 19
Waning Gibbous
Nov 25
Last Quarter
Dec 2
New
Dec 9
First Quarter
Dec 17
Full

Hourly Weather History & Observations

Time (EST) Temp. Windchill Dew Point Humidity Pressure Visibility Wind Dir Wind Speed Gust Speed Precip Events Conditions
12:53 AM 48.0 °F - 30.9 °F 52% 29.68 in 10.0 mi WNW 6.9 mph - N/A   Clear
1:53 AM 46.9 °F - 30.0 °F 52% 29.70 in 10.0 mi WNW 8.1 mph - N/A   Clear
2:53 AM 45.0 °F 40.1 °F 28.9 °F 53% 29.72 in 10.0 mi WNW 9.2 mph - N/A   Clear
3:53 AM 44.1 °F 39.0 °F 28.0 °F 53% 29.75 in 10.0 mi WNW 9.2 mph - N/A   Clear
4:53 AM 43.0 °F 36.8 °F 24.1 °F 47% 29.78 in 10.0 mi WNW 11.5 mph 20.7 mph N/A   Clear
5:53 AM 39.9 °F 34.5 °F 24.1 °F 53% 29.80 in 10.0 mi WNW 8.1 mph - N/A   Clear
6:53 AM 41.0 °F 32.8 °F 23.0 °F 49% 29.83 in 10.0 mi WNW 16.1 mph 25.3 mph N/A   Clear
7:53 AM 43.0 °F 36.8 °F 24.1 °F 47% 29.86 in 10.0 mi WNW 11.5 mph 17.3 mph N/A   Mostly Cloudy
8:53 AM 43.0 °F 37.7 °F 24.1 °F 47% 29.87 in 10.0 mi West 9.2 mph 24.2 mph N/A   Overcast
9:53 AM 44.1 °F 37.7 °F 23.0 °F 43% 29.90 in 10.0 mi WNW 12.7 mph 21.9 mph N/A   Overcast
10:53 AM 45.0 °F 38.9 °F 25.0 °F 46% 29.91 in 10.0 mi WNW 12.7 mph 20.7 mph 0.00 in Rain Light Rain
11:53 AM 46.0 °F 40.6 °F 21.0 °F 37% 29.92 in 10.0 mi WNW 11.5 mph 21.9 mph 0.00 in   Clear
12:53 PM 46.9 °F - 21.0 °F 36% 29.94 in 10.0 mi NW 8.1 mph - N/A   Clear
1:53 PM 45.0 °F 40.6 °F 19.9 °F 37% 29.95 in 10.0 mi NNW 8.1 mph 21.9 mph 0.00 in   Clear
2:53 PM 45.0 °F 38.5 °F 21.0 °F 39% 29.98 in 10.0 mi WNW 13.8 mph 21.9 mph 0.00 in   Clear
3:53 PM 43.0 °F 37.2 °F 19.0 °F 38% 30.02 in 10.0 mi NW 10.4 mph 24.2 mph N/A   Clear
4:53 PM 39.9 °F 35.1 °F 18.0 °F 41% 30.07 in 10.0 mi NNW 6.9 mph - N/A   Clear
5:53 PM 37.0 °F 34.5 °F 19.0 °F 48% 30.10 in 10.0 mi NW 3.5 mph - N/A   Clear
6:53 PM 37.0 °F 32.4 °F 19.0 °F 48% 30.13 in 10.0 mi Variable 5.8 mph - N/A   Clear
7:53 PM 36.0 °F 30.3 °F 18.0 °F 48% 30.16 in 10.0 mi NNW 6.9 mph - N/A   Clear
8:53 PM 36.0 °F 29.6 °F 18.0 °F 48% 30.19 in 10.0 mi NW 8.1 mph - N/A   Clear
9:53 PM 34.0 °F 28.0 °F 18.0 °F 52% 30.21 in 10.0 mi NNW 6.9 mph - N/A   Clear
10:53 PM 34.0 °F 28.0 °F 17.1 °F 50% 30.23 in 10.0 mi Variable 6.9 mph - N/A   Clear
11:53 PM 32.0 °F - 17.1 °F 54% 30.27 in 10.0 mi Calm Calm - N/A   Clear